CW8164 Weather Reports


Display with metric or nautical units.
time (UTC)temp
F
wind
direction
speed
MPH
gust
MPH
rain 1hr
in
rain 24hr
in
rain mn
in
humidity
%
barometer
mb
20190319183906 64 93 9.0 21.0 0.00 0.00 0.00 34 1015.6
20190319182406 63 108 9.0 21.0 0.00 0.00 0.00 34 1015.3
20190319181906 63 96 8.0 21.0 0.00 0.00 0.00 34 1015.3
20190319181406 63 93 10.0 25.0 0.00 0.00 0.00 34 1015.4
20190319180906 63 92 11.0 25.0 0.00 0.00 0.00 35 1015.2
20190319180406 63 76 9.0 24.0 0.00 0.00 0.00 35 1015.3
20190319175906 62 68 8.0 26.0 0.00 0.00 0.00 35 1015.4
20190319174905 62 77 10.0 26.0 0.00 0.00 0.00 36 1015.3
20190319174406 62 93 7.0 24.0 0.00 0.00 0.00 35 1015.3
20190319173906 62 99 9.0 24.0 0.00 0.00 0.00 36 1015.3
20190319173406 62 76 10.0 24.0 0.00 0.00 0.00 36 1015.4
20190319171905 61 112 7.0 25.0 0.00 0.00 0.00 36 1015.5
20190319170906 61 77 10.0 20.0 0.00 0.00 0.00 36 1015.4
20190319170406 61 79 6.0 20.0 0.00 0.00 0.00 36 1015.4
20190319165907 61 88 9.0 20.0 0.00 0.00 0.00 37 1015.2
20190319165406 61 96 11.0 26.0 0.00 0.00 0.00 36 1015.3
20190319164906 61 96 8.0 26.0 0.00 0.00 0.00 38 1015.4
20190319164406 60 115 9.0 22.0 0.00 0.00 0.00 37 1015.4
20190319163406 60 79 9.0 22.0 0.00 0.00 0.00 37 1015.6
20190319162405 60 72 10.0 21.0 0.00 0.00 0.00 38 1015.5
20190319161906 60 98 6.0 20.0 0.00 0.00 0.00 38 1015.5
20190319161406 60 114 11.0 20.0 0.00 0.00 0.00 38 1015.6
20190319160407 59 82 8.0 16.0 0.00 0.00 0.00 39 1015.7
20190319154906 58 100 6.0 15.0 0.00 0.00 0.00 40 1015.6
20190319154406 58 94 7.0 15.0 0.00 0.00 0.00 40 1015.7
20190319152905 58 88 6.0 20.0 0.00 0.00 0.00 41 1015.7
20190319152406 57 97 6.0 20.0 0.00 0.00 0.00 41 1015.7
20190319151406 57 84 6.0 16.0 0.00 0.00 0.00 41 1015.9
20190319145906 57 101 7.0 17.0 0.00 0.00 0.00 41 1016.0
20190319144406 57 81 8.0 15.0 0.00 0.00 0.00 40 1016.1
20190319142405 57 98 5.0 21.0 0.00 0.00 0.00 41 1016.0
20190319141906 57 95 5.0 13.0 0.00 0.00 0.00 41 1016.0
20190319140906 57 104 6.0 21.0 0.00 0.00 0.00 41 1016.1
20190319135906 57 83 5.0 14.0 0.00 0.00 0.00 41 1016.0
20190319135406 57 120 5.0 14.0 0.00 0.00 0.00 41 1015.9
20190319134905 57 122 5.0 14.0 0.00 0.00 0.00 40 1015.8
20190319134406 57 90 7.0 14.0 0.00 0.00 0.00 40 1015.8
20190319133905 57 77 6.0 14.0 0.00 0.00 0.00 41 1015.9
20190319133406 57 84 6.0 13.0 0.00 0.00 0.00 40 1016.0
20190319132406 58 100 3.0 18.0 0.00 0.00 0.00 40 1015.9
20190319131906 58 106 7.0 18.0 0.00 0.00 0.00 39 1015.8
20190319131406 58 111 7.0 14.0 0.00 0.00 0.00 40 1015.7
20190319125906 58 87 6.0 14.0 0.00 0.00 0.00 40 1015.9
20190319124405 58 106 6.0 14.0 0.00 0.00 0.00 40 1016.0
20190319122905 58 106 6.0 20.0 0.00 0.00 0.00 39 1016.1
20190319121905 57 77 3.0 12.0 0.00 0.00 0.00 39 1016.1
20190319120406 58 76 5.0 18.0 0.00 0.00 0.00 39 1016.1
20190319115406 58 116 5.0 14.0 0.00 0.00 0.00 39 1016.2
20190319114405 58 103 6.0 15.0 0.00 0.00 0.00 39 1016.2
20190319113906 58 64 7.0 20.0 0.00 0.00 0.00 38 1016.2
20190319112906 58 90 9.0 20.0 0.00 0.00 0.00 38 1016.2
20190319111906 58 86 9.0 18.0 0.00 0.00 0.00 38 1016.2
20190319105905 58 70 10.0 21.0 0.00 0.00 0.00 39 1016.2
20190319105406 58 79 8.0 21.0 0.00 0.00 0.00 38 1016.2
20190319104905 58 85 8.0 21.0 0.00 0.00 0.00 38 1016.3
20190319104405 58 100 9.0 21.0 0.00 0.00 0.00 38 1016.3
20190319102405 59 110 7.0 18.0 0.00 0.01 0.00 37 1016.6
20190319101905 59 108 9.0 20.0 0.00 0.01 0.00 36 1016.6
20190319101406 59 73 7.0 22.0 0.00 0.01 0.00 36 1016.7
20190319095906 59 100 8.0 18.0 0.00 0.01 0.00 37 1016.7
20190319095405 59 77 10.0 18.0 0.00 0.01 0.00 37 1016.6
20190319094906 59 86 6.0 22.0 0.00 0.01 0.00 36 1016.6
20190319093405 59 73 8.0 25.0 0.00 0.01 0.00 36 1016.4
20190319092906 59 105 9.0 25.0 0.00 0.01 0.00 36 1016.4
20190319092405 59 107 10.0 25.0 0.00 0.01 0.00 36 1016.2
20190319091906 59 86 14.0 25.0 0.00 0.01 0.00 36 1016.2
20190319085905 59 92 7.0 22.0 0.00 0.01 0.00 36 1016.5
20190319084905 59 93 12.0 21.0 0.00 0.01 0.00 36 1016.3
20190319084405 59 81 10.0 30.0 0.00 0.01 0.00 36 1016.3
20190319083905 59 94 10.0 30.0 0.00 0.01 0.00 36 1016.3
20190319083405 59 76 9.0 21.0 0.00 0.01 0.00 36 1016.5
20190319082905 59 84 11.0 24.0 0.00 0.01 0.00 36 1016.5
20190319081906 58 84 11.0 29.0 0.00 0.01 0.00 36 1016.4
20190319080905 59 93 11.0 32.0 0.00 0.01 0.00 36 1016.6
20190319080405 59 88 14.0 32.0 0.00 0.01 0.00 36 1016.6
20190319075405 59 83 11.0 23.0 0.00 0.01 0.00 35 1016.6
20190319074906 59 76 9.0 24.0 0.00 0.01 0.00 35 1016.7
20190319073905 59 87 8.0 24.0 0.00 0.01 0.00 35 1016.5
20190319073406 59 90 10.0 24.0 0.00 0.01 0.00 35 1016.4
20190319072905 59 71 12.0 24.0 0.00 0.01 0.00 35 1016.7
20190319071905 59 89 10.0 20.0 0.00 0.01 0.00 35 1016.5
20190319065905 59 85 11.0 24.0 0.00 0.01 0.01 35 1016.8
20190319065405 59 99 10.0 24.0 0.00 0.01 0.01 35 1016.8
20190319064905 59 85 11.0 36.0 0.00 0.01 0.01 35 1016.8
20190319061905 58 84 10.0 32.0 0.00 0.01 0.01 37 1016.8
20190319061405 58 107 10.0 26.0 0.00 0.01 0.01 37 1016.8
20190319060405 57 98 10.0 26.0 0.00 0.01 0.01 37 1017.0
20190319054405 57 115 12.0 35.0 0.00 0.01 0.01 38 1017.0
20190319053906 57 93 12.0 35.0 0.00 0.01 0.01 38 1016.9
20190319053405 57 97 13.0 31.0 0.00 0.01 0.01 38 1016.8
20190319050905 57 78 10.0 25.0 0.00 0.01 0.01 39 1016.7
20190319050405 57 93 13.0 26.0 0.00 0.01 0.01 39 1016.8
20190319045905 57 91 11.0 26.0 0.00 0.01 0.01 40 1016.8
20190319045405 57 99 10.0 24.0 0.00 0.01 0.01 40 1016.8
20190319044905 57 67 12.0 24.0 0.00 0.01 0.01 39 1016.9
20190319041405 57 107 9.0 26.0 0.00 0.01 0.01 39 1017.0
20190319033906 57 101 13.0 30.0 0.00 0.01 0.01 40 1016.8
20190319032904 57 71 8.0 25.0 0.00 0.01 0.01 40 1017.0
20190319032405 57 99 12.0 25.0 0.00 0.01 0.01 40 1017.0
20190319031405 57 86 10.0 22.0 0.00 0.01 0.01 39 1017.0
20190319025905 58 106 8.0 26.0 0.00 0.01 0.01 40 1017.0
20190319025405 58 98 7.0 25.0 0.00 0.01 0.01 39 1017.4
20190319024404 58 83 10.0 18.0 0.00 0.01 0.01 38 1017.5
20190319023905 58 86 7.0 23.0 0.00 0.01 0.01 39 1017.5
20190319022905 58 72 7.0 28.0 0.00 0.01 0.01 38 1017.2
20190319022405 59 89 13.0 28.0 0.00 0.01 0.01 37 1017.5
20190319021404 59 97 8.0 25.0 0.00 0.01 0.01 38 1017.4
20190319020905 59 110 6.0 25.0 0.00 0.01 0.01 38 1017.6
20190319020405 59 88 10.0 22.0 0.00 0.01 0.01 37 1017.8
20190319015905 59 77 12.0 22.0 0.00 0.01 0.01 37 1018.0
20190319015405 59 93 8.0 14.0 0.00 0.01 0.01 37 1018.0
20190319013905 60 87 6.0 28.0 0.00 0.01 0.01 36 1018.0
20190319012905 61 71 9.0 22.0 0.00 0.01 0.01 35 1018.2
20190319012405 61 112 7.0 15.0 0.00 0.01 0.01 34 1018.0
20190319011405 61 100 6.0 22.0 0.00 0.01 0.01 36 1018.0
20190319010905 61 79 6.0 18.0 0.00 0.01 0.01 35 1018.1
20190319005905 62 79 7.0 18.0 0.00 0.01 0.01 35 1018.0
20190319004405 62 88 6.0 20.0 0.00 0.01 0.01 34 1018.0
20190319003905 63 95 3.0 20.0 0.00 0.01 0.01 34 1018.1
20190319002904 63 79 5.0 17.0 0.00 0.01 0.01 34 1018.0
20190319002405 63 70 5.0 17.0 0.00 0.01 0.01 33 1018.3
20190319001905 63 83 7.0 24.0 0.00 0.01 0.01 33 1018.1
20190319000405 63 104 8.0 18.0 0.00 0.01 0.01 33 1018.4
20190318235404 63 105 6.0 25.0 0.00 0.01 0.01 33 1018.4
20190318234905 63 88 6.0 25.0 0.00 0.01 0.01 34 1018.4
20190318233904 63 94 10.0 26.0 0.00 0.01 0.01 34 1018.6
20190318233404 63 78 10.0 25.0 0.00 0.01 0.01 34 1018.7
20190318232405 63 69 14.0 26.0 0.00 0.01 0.01 34 1018.5
20190318230904 64 82 10.0 30.0 0.00 0.01 0.01 33 1018.7
20190318224404 64 80 13.0 28.0 0.00 0.01 0.01 32 1018.9
20190318223905 64 71 10.0 24.0 0.00 0.01 0.01 31 1019.0
20190318222405 64 90 10.0 35.0 0.00 0.01 0.01 32 1018.8
20190318221904 64 63 18.0 35.0 0.00 0.01 0.01 32 1018.9
20190318221404 64 83 10.0 23.0 0.00 0.01 0.01 32 1018.9
20190318220905 64 60 10.0 30.0 0.00 0.01 0.01 32 1019.0
20190318220405 64 100 16.0 30.0 0.00 0.01 0.01 32 1019.0
20190318214404 65 81 12.0 24.0 0.00 0.01 0.01 31 1019.0
20190318213405 64 84 13.0 26.0 0.00 0.01 0.01 32 1019.2
20190318211905 64 97 11.0 28.0 0.00 0.01 0.01 30 1019.3
20190318210404 64 108 10.0 32.0 0.00 0.01 0.01 31 1019.3
20190318205405 64 77 12.0 32.0 0.00 0.01 0.01 31 1019.3
20190318204404 64 110 12.0 25.0 0.00 0.01 0.01 32 1019.6
20190318203405 64 73 14.0 26.0 0.00 0.01 0.01 31 1019.7
20190318202905 64 98 11.0 29.0 0.00 0.01 0.01 32 1019.6
20190318202405 64 64 13.0 30.0 0.00 0.01 0.01 32 1019.6
20190318201905 64 81 13.0 30.0 0.00 0.01 0.01 32 1019.8
20190318201405 64 69 12.0 26.0 0.00 0.01 0.01 31 1019.9
20190318200905 63 62 12.0 26.0 0.00 0.01 0.01 32 1019.9
20190318200404 63 80 10.0 26.0 0.00 0.01 0.01 33 1020.0
20190318195905 63 88 13.0 25.0 0.00 0.01 0.01 32 1019.9
20190318192904 62 91 9.0 25.0 0.00 0.01 0.01 32 1020.0
20190318191405 62 67 7.0 21.0 0.00 0.01 0.01 32 1020.3
20190318190904 62 104 9.0 21.0 0.00 0.01 0.01 32 1020.5
20190318185404 62 103 9.0 24.0 0.00 0.01 0.01 33 1020.4
20190318184904 61 67 14.0 24.0 0.00 0.01 0.01 34 1020.4